Location: Litvinovka
(48.6667°N, 34.3500°E)
Time: 09:52:46
(UTC+00:00)

CREW DRAGON DEMO-1 DEB - Pass Details

Date: 18 September 2020
Orbit: 361 x 363 km, 51.6° (Epoch: 25 October)

Event Time Altitude Azimuth Distance (km) Brightness Sun altitude
Rises 16:58:28 0° 277° (W) 2,197 8.6 -12.2°
Reaches altitude 10° 17:00:33 10° 284° (WNW) 1,351 7.1 -12.5°
Maximum altitude 17:03:28 44° 359° (N) 514 3.6 -13.0°
Enters shadow 17:05:16 20° 65° (ENE) 929 4.4 -13.3°
